Location: Unspecified
(47.2333°N, 39.7000°E)
Time: 22:36:44
(UTC+00:00)

ISS - Pass Details

Date: 14 July 2022
Orbit: 412 x 420 km, 51.6° (Epoch: 17 August)

Event Time Altitude Azimuth Distance (km) Brightness Sun altitude
Rises 18:52:40 0° 242° (WSW) 2,341 0.1 -12.9°
Reaches altitude 10° 18:54:45 10° 241° (WSW) 1,483 -0.9 -13.1°
Maximum altitude 18:58:04 84° 153° (SSE) 422 -3.9 -13.4°
Drops below altitude 10° 19:01:26 10° 66° (ENE) 1,495 -1.1 -13.8°
Sets 19:03:32 0° 66° (ENE) 2,362 0.0 -14.0°
